Location: Caltech
(34.1382°N, 118.1253°W)
Time: 09:23:17
(UTC-07:00)

Transit 2A - Visible Passes

Search period start: 23 September 2014 00:00
Search period end: 03 October 2014 00:00
Orbit: 600 x 962 km, 66.7° (Epoch: 21 September)

Date Brightness Start Highest point End Pass type
(mag) Time Alt. Az. Time Alt. Az. Time Alt. Az.
23 Sep 6.0 20:28:29 10° NNW 20:33:48 85° ENE 20:35:48 42° SSE visible
23 Sep 8.9 22:15:26 10° W 22:16:24 11° WSW 22:16:24 11° WSW visible
24 Sep 6.2 19:55:03 10° NNW 20:00:16 58° ENE 20:04:08 20° SE visible
24 Sep 8.5 21:39:43 10° WNW 21:43:09 17° WSW 21:44:44 15° SW visible
25 Sep 6.6 19:21:45 10° N 19:26:41 39° ENE 19:32:05 10° SE visible
25 Sep 8.1 21:05:20 10° NW 21:09:45 25° WSW 21:13:20 15° SSW visible
26 Sep 7.5 20:31:21 10° NW 20:36:19 38° WSW 20:41:42 10° S visible
27 Sep 6.8 19:57:35 10° NW 20:02:51 57° WSW 20:08:37 10° S visible
28 Sep 6.3 19:23:58 10° NNW 19:29:21 84° WSW 19:35:17 10° SSE visible
29 Sep 9.0 20:35:41 10° WNW 20:38:38 15° WSW 20:41:43 10° SW visible
30 Sep 8.6 20:01:04 10° WNW 20:05:15 22° WSW 20:09:42 10° SSW visible
01 Oct 8.1 19:26:58 10° NW 19:31:50 33° WSW 19:37:05 10° S visible
02 Oct 7.4 18:53:08 10° NW 18:58:22 49° WSW 19:04:06 10° S visible
